Tracking 18794 objects as of 21-September-2017
HD Live streaming from Space Station
objects crossing your sky now

COSMOS 2368

Track COSMOS 2368 now!
COSMOS 2368 is classified as:


NORAD ID: 26042
Int'l Code: 1999-073A
Perigee: 4,221.6 km
Apogee: 36,151.1 km
Inclination: 67.0 °
Period: 717.9 minutes
Semi major axis: 26557 km
RCS: 7.9432 m2 (large)
Launch date: December 27, 1999
Source: Commonwealth of Independent States (former USSR) (CIS)
Launch site: PLESETSK MISSILE AND SPACE COMPLEX (PKMTR)
aabbcc
Your satellite tracking list
Your tracking list is empty





NASA's NSSDC Master Catalog

Two Line Element Set (TLE):
1 26042U 99073A   17263.00911625 -.00000625  00000-0  00000+0 0  9998
2 26042  67.0396 168.8926 6011437 224.5219 326.2892  2.00597841129891
Source of the keplerian elements: AFSPC